Weather History for Chattanooga, TN

Change the Weather History Date:

Saturday, March 26, 2011

  Actual Average Record
Temperature  
Mean Temperature 48 °F 55 °F  
Max Temperature 50 °F 67 °F 84 °F (1991)
Min Temperature 46 °F 43 °F 19 °F (1894)
Degree Days  
Heating Degree Days 17 10  
Month to date heating degree days 268 355  
Since 1 July heating degree days 2973 2977  
Cooling Degree Days 0 0  
Month to date cooling degree days 11 0  
Year to date cooling degree days 11 0  
Moisture  
Dew Point 45 °F    
Average Humidity 83    
Maximum Humidity 100    
Minimum Humidity 66    
Precipitation  
Precipitation 2.93 in 0.16 in 2.93 in (2011)
Month to date precipitation 10.71 4.18  
Year to date precipitation 17.22 13.93  
Snow  
Snow 0.00 in 0.00 in - ()
Month to date snowfall 0.0 1.1  
Since 1 July snowfall 12.6 3.7  
Snow Depth 0.00 in    
Sea Level Pressure  
Sea Level Pressure 29.84 in    
Wind  
Wind Speed 5 mph (NNE)    
Max Wind Speed 23 mph    
Max Gust Speed 28 mph    
Visibility 4 miles    
Events Fog , Rain , Thunderstorm    
T = Trace of Precipitation, MM = Missing Value Source: NWS Daily Summary

Daily Weather History Graph

Daily Weather History Graph

Search for Another Location

Airport:

Trip Planner

Search our weather history database for the weather conditions in past years. The results will help you decide how hot, cold, wet, or windy it might be!

Date:

Astronomy

Mar. 26, 2011 Rise Set
Actual Time 7:36 AM EDT 7:57 PM EDT
Civil Twilight 7:11 AM EDT 8:22 PM EDT
Nautical Twilight 6:41 AM EDT 8:52 PM EDT
Astronomical Twilight 6:11 AM EDT 9:22 PM EDT
Moon 2:48 AM EDT (3/26) 12:52 PM EDT (3/26)
Length of Visible Light 13h 11m
Length of Day
12h 20m
Waning Gibbous, 48% of the Moon is Illuminated
Mar 26
Waning Gibbous
Apr 3
New
Apr 11
First Quarter
Apr 17
Full
Apr 24
Last Quarter

Hourly Weather History & Observations

Time (EDT) Temp. Windchill Dew Point Humidity Pressure Visibility Wind Dir Wind Speed Gust Speed Precip Events Conditions
12:53 AM 50.0 °F - 39.9 °F 68% 29.94 in 10.0 mi NNE 5.8 mph - N/A   Overcast
1:53 AM 50.0 °F - 39.9 °F 68% 29.92 in 10.0 mi NE 5.8 mph - N/A   Overcast
1:54 AM 50.0 °F - 39.9 °F 68% 29.92 in 10.0 mi North - - N/A   Overcast
2:00 AM 50.0 °F - 39.9 °F 68% 29.92 in 10.0 mi North - - N/A   Overcast
2:53 AM 50.0 °F - 39.9 °F 68% 29.90 in 10.0 mi NE 5.8 mph - N/A   Overcast
3:53 AM 50.0 °F - 39.9 °F 68% 29.91 in 10.0 mi North 6.9 mph - N/A   Overcast
4:31 AM 48.2 °F - 42.8 °F 82% 29.91 in 8.0 mi North 6.9 mph - 0.00 in Rain , Thunderstorm Light Thunderstorms and Rain
4:47 AM 48.2 °F - 42.8 °F 82% 29.91 in 10.0 mi North 10.4 mph - 0.01 in Rain Light Rain
4:53 AM 48.0 °F - 42.1 °F 80% 29.92 in 10.0 mi North 8.1 mph - 0.01 in Rain Light Rain
5:47 AM 48.2 °F - 42.8 °F 82% 29.89 in 6.0 mi North 8.1 mph - 0.00 in Rain , Thunderstorm Light Thunderstorms and Rain
5:53 AM 46.9 °F - 43.0 °F 86% 29.88 in 5.0 mi NNE 5.8 mph - 0.02 in Rain , Thunderstorm Light Thunderstorms and Rain
6:06 AM 46.4 °F 42.9 °F 44.6 °F 93% 29.88 in 1.5 mi NE 6.9 mph - 0.02 in Rain , Thunderstorm Heavy Thunderstorms and Rain
6:15 AM 46.4 °F 44.3 °F 44.6 °F 93% 29.89 in 4.0 mi NNE 4.6 mph - 0.18 in Rain , Thunderstorm Thunderstorms and Rain
6:22 AM 46.4 °F 42.4 °F 44.6 °F 93% 29.87 in 1.8 mi NNE 8.1 mph - 0.18 in Rain , Thunderstorm Heavy Thunderstorms and Rain
6:47 AM 46.4 °F - 44.6 °F 93% 29.90 in 2.5 mi Calm Calm - 0.42 in Rain , Thunderstorm Heavy Thunderstorms and Rain
6:53 AM 46.0 °F 43.1 °F 44.1 °F 93% 29.92 in 3.0 mi NW 5.8 mph - 0.44 in Rain , Thunderstorm Thunderstorms and Rain
7:53 AM 46.0 °F 41.0 °F 44.1 °F 93% 29.87 in 2.0 mi North 10.4 mph - 0.19 in Rain , Thunderstorm Thunderstorms and Rain
8:00 AM 46.4 °F 41.1 °F 44.6 °F 93% 29.88 in 2.0 mi North 11.5 mph - 0.02 in Rain , Thunderstorm Thunderstorms and Rain
8:14 AM 46.4 °F 45.2 °F 44.6 °F 93% 29.91 in 5.0 mi NNW 3.5 mph - 0.04 in Rain , Thunderstorm Thunderstorms and Rain
8:39 AM 46.4 °F 45.2 °F 44.6 °F 93% 29.90 in 5.0 mi Variable 3.5 mph - 0.14 in Rain Heavy Rain
8:45 AM 46.4 °F 45.2 °F 42.8 °F 87% 29.90 in 5.0 mi NNE 3.5 mph - 0.17 in Rain , Thunderstorm Thunderstorms and Rain
8:53 AM 46.0 °F 42.5 °F 44.1 °F 93% 29.91 in 5.0 mi North 6.9 mph - 0.21 in Rain , Thunderstorm Thunderstorms and Rain
9:07 AM 46.4 °F 44.3 °F 44.6 °F 93% 29.90 in 3.0 mi NNE 4.6 mph - 0.09 in Rain Heavy Rain
9:17 AM 46.4 °F 45.2 °F 44.6 °F 93% 29.91 in 2.0 mi Variable 3.5 mph - 0.15 in Rain Heavy Rain
9:53 AM 46.0 °F 42.5 °F 44.1 °F 93% 29.92 in 2.0 mi North 6.9 mph - 0.28 in Rain Rain
9:57 AM 46.4 °F 43.5 °F 44.6 °F 93% 29.93 in 2.5 mi North 5.8 mph - 0.01 in Rain Rain
10:18 AM 46.4 °F - 44.6 °F 93% 29.90 in 2.0 mi Calm Calm - 0.11 in Rain , Thunderstorm Thunderstorms and Rain
10:47 AM 46.4 °F - 44.6 °F 93% 29.91 in 2.0 mi Calm Calm - 0.26 in Rain Rain
10:53 AM 46.0 °F - 44.1 °F 93% 29.91 in 2.0 mi Calm Calm - 0.28 in Rain , Thunderstorm Thunderstorms and Rain
11:25 AM 46.4 °F 43.5 °F 44.6 °F 93% 29.89 in 2.0 mi NNE 5.8 mph - 0.17 in Rain Rain
11:53 AM 46.0 °F 43.9 °F 45.0 °F 96% 29.88 in 1.5 mi SSE 4.6 mph - 0.28 in Rain Rain
12:21 PM 46.4 °F - 44.6 °F 93% 29.84 in 2.0 mi Calm Calm - 0.14 in Rain Light Rain
12:53 PM 46.9 °F - 45.0 °F 93% 29.87 in 4.0 mi North 4.6 mph - 0.15 in Rain Light Rain
1:02 PM 46.4 °F - 44.6 °F 93% 29.86 in 2.5 mi Calm Calm - 0.00 in Rain Light Rain
1:53 PM 46.9 °F - 45.0 °F 93% 29.84 in 2.5 mi North 3.5 mph - 0.04 in Rain Rain
2:53 PM 48.0 °F - 46.0 °F 93% 29.81 in 2.5 mi NE 5.8 mph - 0.03 in Rain Light Rain
3:53 PM 48.0 °F - 46.0 °F 93% 29.77 in 2.5 mi NE 3.5 mph - 0.02 in Rain Light Rain
4:10 PM 48.2 °F - 46.4 °F 93% 29.80 in 2.5 mi NW 9.2 mph - 0.01 in Rain , Thunderstorm Light Thunderstorms and Rain
4:33 PM 48.2 °F - 46.4 °F 93% 29.76 in 2.5 mi North 5.8 mph - 0.12 in Rain Light Rain
4:53 PM 48.9 °F - 46.9 °F 93% 29.76 in 2.5 mi NNE 4.6 mph - 0.14 in Rain Light Rain
5:31 PM 48.2 °F - 46.4 °F 93% 29.75 in 1.5 mi NNE 4.6 mph - 0.04 in Rain Rain
5:53 PM 48.9 °F - 48.0 °F 97% 29.75 in 2.5 mi ESE 8.1 mph - 0.28 in Rain Light Rain
6:53 PM 50.0 °F - 48.0 °F 93% 29.72 in 2.5 mi Calm Calm - 0.01 in   Overcast
7:09 PM 50.0 °F - 46.4 °F 87% 29.72 in 2.5 mi Calm Calm - 0.01 in Rain , Thunderstorm Light Thunderstorms and Rain
7:14 PM 48.2 °F - 48.2 °F 100% 29.71 in 0.5 mi NNE 8.1 mph - 0.02 in Fog , Rain , Thunderstorm Heavy Thunderstorms and Rain
7:28 PM 48.2 °F - 48.2 °F 100% 29.72 in 2.0 mi ENE 12.7 mph - 0.25 in Rain , Thunderstorm Light Thunderstorms and Rain
7:53 PM 50.0 °F - 48.0 °F 93% 29.70 in 2.5 mi North 6.9 mph - 0.25 in Rain , Thunderstorm Light Thunderstorms and Rain
8:37 PM 50.0 °F - 48.2 °F 94% 29.72 in 2.5 mi NE 5.8 mph - 0.19 in   Overcast
8:53 PM 50.0 °F - 48.0 °F 93% 29.75 in 2.5 mi NNE 4.6 mph - 0.19 in   Mostly Cloudy
9:20 PM 50.0 °F - 46.4 °F 87% 29.73 in 2.5 mi North 8.1 mph - 0.01 in Rain , Thunderstorm Light Thunderstorms and Rain
9:53 PM 50.0 °F - 46.9 °F 89% 29.78 in 2.5 mi North 9.2 mph - 0.02 in Rain , Thunderstorm Light Thunderstorms and Rain
10:27 PM 48.2 °F - 46.4 °F 93% 29.76 in 2.5 mi Calm Calm - 0.09 in Rain Light Rain
10:53 PM 48.9 °F - 48.0 °F 97% 29.76 in 2.5 mi Calm Calm - 0.09 in Rain Light Rain
11:01 PM 48.2 °F - 46.4 °F 93% 29.76 in 2.5 mi Calm Calm - 0.00 in   Overcast
11:53 PM 48.9 °F - 48.0 °F 97% 29.75 in 6.0 mi Calm Calm - 0.00 in   Overcast